| time (UTC) | temp C | wind direction | speed KPH | gust KPH | rain 1hr cm | rain 24hr cm | rain mn cm | humidity % | barometer mb |
| 20260506162003 | 17 | 202 | 4.8 | 14.5 | 0.00 | 0.00 | 0.00 | 69 | 1009.5 |
| 20260506161502 | 17 | 202 | 8.0 | 19.3 | 0.00 | 0.00 | 0.00 | 69 | 1009.4 |
| 20260506161003 | 17 | 199 | 3.2 | 11.3 | 0.00 | 0.00 | 0.00 | 69 | 1009.4 |
| 20260506160503 | 17 | 199 | 4.8 | 14.5 | 0.00 | 0.00 | 0.00 | 69 | 1009.6 |
| 20260506160003 | 17 | 213 | 6.4 | 12.9 | 0.00 | 0.00 | 0.00 | 68 | 1009.5 |
| 20260506155005 | 17 | 218 | 9.7 | 20.9 | 0.00 | 0.00 | 0.00 | 67 | 1009.5 |
| 20260506154503 | 18 | 236 | 8.0 | 16.1 | 0.00 | 0.00 | 0.00 | 67 | 1009.6 |
| 20260506154004 | 18 | 194 | 4.8 | 14.5 | 0.00 | 0.00 | 0.00 | 67 | 1009.7 |
| 20260506153503 | 18 | 212 | 4.8 | 11.3 | 0.00 | 0.00 | 0.00 | 67 | 1009.8 |
| 20260506153003 | 18 | 192 | 4.8 | 9.7 | 0.00 | 0.00 | 0.00 | 67 | 1009.8 |
| 20260506152503 | 18 | 195 | 6.4 | 11.3 | 0.00 | 0.00 | 0.00 | 67 | 1009.8 |
| 20260506152004 | 18 | 192 | 4.8 | 16.1 | 0.00 | 0.00 | 0.00 | 67 | 1009.8 |
| 20260506151004 | 17 | 215 | 8.0 | 12.9 | 0.00 | 0.00 | 0.00 | 67 | 1009.8 |
| 20260506150504 | 17 | 172 | 4.8 | 14.5 | 0.00 | 0.00 | 0.00 | 67 | 1009.5 |
| 20260506150003 | 17 | 193 | 6.4 | 11.3 | 0.00 | 0.00 | 0.00 | 68 | 1009.5 |
| 20260506145504 | 17 | 173 | 4.8 | 12.9 | 0.00 | 0.00 | 0.00 | 68 | 1009.5 |
| 20260506145004 | 17 | 231 | 4.8 | 12.9 | 0.00 | 0.00 | 0.00 | 67 | 1009.5 |
| 20260506144504 | 17 | 211 | 6.4 | 16.1 | 0.00 | 0.00 | 0.00 | 67 | 1009.4 |
| 20260506144003 | 18 | 209 | 3.2 | 9.7 | 0.00 | 0.00 | 0.00 | 67 | 1009.4 |
| 20260506143504 | 18 | 216 | 8.0 | 14.5 | 0.00 | 0.00 | 0.00 | 67 | 1009.6 |
| 20260506142503 | 18 | 208 | 4.8 | 16.1 | 0.00 | 0.00 | 0.00 | 67 | 1009.7 |
| 20260506142004 | 18 | 227 | 4.8 | 12.9 | 0.00 | 0.00 | 0.00 | 67 | 1009.8 |
| 20260506141503 | 18 | 213 | 8.0 | 20.9 | 0.00 | 0.00 | 0.00 | 67 | 1009.7 |
| 20260506141004 | 17 | 200 | 8.0 | 22.5 | 0.00 | 0.00 | 0.00 | 67 | 1009.8 |
| 20260506140503 | 17 | 224 | 8.0 | 25.7 | 0.00 | 0.00 | 0.00 | 67 | 1009.8 |
| 20260506140003 | 17 | 230 | 8.0 | 19.3 | 0.00 | 0.00 | 0.00 | 68 | 1009.8 |
| 20260506135503 | 17 | 218 | 4.8 | 14.5 | 0.00 | 0.00 | 0.00 | 68 | 1009.9 |
| 20260506134504 | 17 | 218 | 8.0 | 16.1 | 0.00 | 0.00 | 0.00 | 68 | 1010.0 |
| 20260506134004 | 17 | 218 | 8.0 | 19.3 | 0.00 | 0.00 | 0.00 | 68 | 1010.0 |
| 20260506133504 | 17 | 208 | 8.0 | 22.5 | 0.00 | 0.00 | 0.00 | 68 | 1010.0 |
| 20260506133004 | 17 | 189 | 9.7 | 19.3 | 0.00 | 0.00 | 0.00 | 68 | 1010.0 |
| 20260506132503 | 17 | 207 | 4.8 | 22.5 | 0.00 | 0.00 | 0.00 | 69 | 1009.9 |
| 20260506132003 | 17 | 218 | 3.2 | 20.9 | 0.00 | 0.00 | 0.00 | 69 | 1009.7 |
| 20260506131503 | 17 | 213 | 9.7 | 19.3 | 0.00 | 0.00 | 0.00 | 68 | 1009.8 |
| 20260506131004 | 17 | 223 | 6.4 | 19.3 | 0.00 | 0.00 | 0.00 | 69 | 1009.8 |
| 20260506130503 | 17 | 190 | 4.8 | 14.5 | 0.00 | 0.00 | 0.00 | 69 | 1009.7 |
| 20260506130003 | 17 | 220 | 8.0 | 16.1 | 0.00 | 0.00 | 0.00 | 69 | 1009.7 |
| 20260506125503 | 17 | 217 | 6.4 | 14.5 | 0.00 | 0.00 | 0.00 | 69 | 1009.8 |
| 20260506125003 | 17 | 198 | 4.8 | 20.9 | 0.00 | 0.00 | 0.00 | 69 | 1009.7 |
| 20260506124504 | 17 | 226 | 4.8 | 27.4 | 0.00 | 0.00 | 0.00 | 69 | 1009.7 |
| 20260506123504 | 17 | 208 | 6.4 | 14.5 | 0.00 | 0.00 | 0.00 | 70 | 1010.0 |
| 20260506123004 | 16 | 184 | 4.8 | 14.5 | 0.00 | 0.00 | 0.00 | 70 | 1010.1 |
| 20260506122503 | 16 | 179 | 8.0 | 19.3 | 0.00 | 0.00 | 0.00 | 70 | 1010.1 |
| 20260506122003 | 16 | 206 | 8.0 | 20.9 | 0.00 | 0.00 | 0.00 | 71 | 1010.2 |
| 20260506121503 | 16 | 165 | 6.4 | 14.5 | 0.00 | 0.00 | 0.00 | 71 | 1010.4 |
| 20260506121004 | 16 | 232 | 3.2 | 14.5 | 0.00 | 0.00 | 0.00 | 72 | 1010.3 |
| 20260506120503 | 16 | 211 | 4.8 | 22.5 | 0.00 | 0.00 | 0.00 | 72 | 1010.2 |
| 20260506120003 | 16 | 173 | 4.8 | 12.9 | 0.00 | 0.00 | 0.00 | 73 | 1010.3 |
| 20260506114502 | 15 | 212 | 3.2 | 12.9 | 0.00 | 0.00 | 0.00 | 75 | 1010.0 |
| 20260506114003 | 15 | 186 | 3.2 | 11.3 | 0.00 | 0.00 | 0.00 | 75 | 1010.1 |
| 20260506113503 | 15 | 215 | 3.2 | 11.3 | 0.00 | 0.00 | 0.00 | 76 | 1010.0 |
| 20260506113003 | 15 | 194 | 3.2 | 8.0 | 0.00 | 0.00 | 0.00 | 76 | 1010.0 |
| 20260506112503 | 15 | 191 | 3.2 | 8.0 | 0.00 | 0.00 | 0.00 | 76 | 1010.0 |
| 20260506112004 | 15 | 189 | 4.8 | 11.3 | 0.00 | 0.00 | 0.00 | 76 | 1010.1 |
| 20260506110503 | 14 | 207 | 3.2 | 8.0 | 0.00 | 0.00 | 0.00 | 76 | 1010.3 |
| 20260506110004 | 14 | 197 | 3.2 | 8.0 | 0.00 | 0.00 | 0.00 | 76 | 1010.2 |
| 20260506105504 | 14 | 205 | 1.6 | 4.8 | 0.00 | 0.00 | 0.00 | 76 | 1010.1 |
| 20260506105003 | 14 | 190 | 3.2 | 11.3 | 0.00 | 0.00 | 0.00 | 76 | 1010.1 |
| 20260506104503 | 14 | 194 | 3.2 | 11.3 | 0.00 | 0.00 | 0.00 | 76 | 1010.2 |
| 20260506104003 | 14 | 192 | 3.2 | 9.7 | 0.00 | 0.00 | 0.00 | 76 | 1010.1 |
| 20260506102504 | 14 | 191 | 3.2 | 4.8 | 0.00 | 0.00 | 0.00 | 76 | 1010.0 |
| 20260506101503 | 14 | 200 | 3.2 | 9.7 | 0.00 | 0.00 | 0.00 | 76 | 1010.0 |
| 20260506101004 | 14 | 196 | 3.2 | 8.0 | 0.00 | 0.00 | 0.00 | 76 | 1010.0 |
| 20260506100503 | 14 | 191 | 3.2 | 11.3 | 0.00 | 0.00 | 0.00 | 76 | 1010.1 |
| 20260506095504 | 14 | 215 | 3.2 | 12.9 | 0.00 | 0.00 | 0.00 | 75 | 1010.0 |
| 20260506095004 | 14 | 166 | 3.2 | 8.0 | 0.00 | 0.00 | 0.00 | 75 | 1010.0 |
| 20260506094503 | 14 | 220 | 3.2 | 8.0 | 0.00 | 0.00 | 0.00 | 75 | 1010.0 |
| 20260506094003 | 14 | 220 | 3.2 | 11.3 | 0.00 | 0.00 | 0.00 | 75 | 1009.9 |
| 20260506093504 | 14 | 214 | 3.2 | 14.5 | 0.00 | 0.00 | 0.00 | 75 | 1009.9 |
| 20260506093003 | 14 | 213 | 4.8 | 12.9 | 0.00 | 0.00 | 0.00 | 75 | 1009.9 |
| 20260506092503 | 14 | 217 | 4.8 | 16.1 | 0.00 | 0.00 | 0.00 | 75 | 1009.9 |
| 20260506092003 | 14 | 210 | 3.2 | 12.9 | 0.00 | 0.00 | 0.00 | 75 | 1010.0 |
| 20260506091504 | 14 | 209 | 3.2 | 12.9 | 0.00 | 0.00 | 0.00 | 75 | 1010.0 |
| 20260506090503 | 14 | 209 | 3.2 | 11.3 | 0.00 | 0.00 | 0.00 | 74 | 1010.0 |
| 20260506090003 | 14 | 202 | 3.2 | 9.7 | 0.00 | 0.00 | 0.00 | 74 | 1010.1 |
| 20260506084503 | 14 | 201 | 3.2 | 9.7 | 0.00 | 0.00 | 0.00 | 74 | 1010.3 |
| 20260506083503 | 14 | 183 | 3.2 | 9.7 | 0.00 | 0.00 | 0.00 | 73 | 1010.4 |
| 20260506083004 | 14 | 155 | 3.2 | 8.0 | 0.00 | 0.00 | 0.00 | 73 | 1010.4 |
| 20260506082503 | 14 | 178 | 3.2 | 9.7 | 0.00 | 0.00 | 0.00 | 73 | 1010.4 |
| 20260506082003 | 14 | 205 | 3.2 | 8.0 | 0.00 | 0.00 | 0.00 | 73 | 1010.4 |
| 20260506081503 | 14 | 205 | 3.2 | 12.9 | 0.00 | 0.00 | 0.00 | 73 | 1010.4 |
| 20260506080503 | 14 | 197 | 3.2 | 9.7 | 0.00 | 0.00 | 0.00 | 73 | 1010.4 |
| 20260506073504 | 14 | 202 | 3.2 | 11.3 | 0.00 | 0.00 | 0.00 | 72 | 1010.5 |
| 20260506073003 | 14 | 181 | 3.2 | 11.3 | 0.00 | 0.00 | 0.00 | 72 | 1010.5 |
| 20260506072503 | 14 | 196 | 3.2 | 9.7 | 0.00 | 0.00 | 0.00 | 72 | 1010.6 |
| 20260506072003 | 14 | 195 | 3.2 | 9.7 | 0.00 | 0.00 | 0.00 | 72 | 1010.6 |
| 20260506071503 | 15 | 192 | 3.2 | 8.0 | 0.00 | 0.00 | 0.00 | 72 | 1010.5 |
| 20260506071003 | 15 | 174 | 3.2 | 8.0 | 0.00 | 0.00 | 0.00 | 72 | 1010.6 |
| 20260506070504 | 15 | 186 | 3.2 | 8.0 | 0.00 | 0.00 | 0.00 | 72 | 1010.7 |
| 20260506062503 | 15 | 188 | 3.2 | 8.0 | 0.00 | 0.00 | 0.00 | 71 | 1010.6 |
| 20260506062003 | 15 | 210 | 3.2 | 9.7 | 0.00 | 0.00 | 0.00 | 71 | 1010.6 |
| 20260506061003 | 15 | 196 | 3.2 | 9.7 | 0.00 | 0.00 | 0.00 | 71 | 1010.5 |
| 20260506051003 | 15 | 195 | 3.2 | 11.3 | 0.00 | 0.00 | 0.00 | 69 | 1010.7 |
| 20260506050503 | 16 | 212 | 3.2 | 12.9 | 0.00 | 0.00 | 0.00 | 69 | 1010.8 |
| 20260506044503 | 16 | 219 | 3.2 | 12.9 | 0.00 | 0.00 | 0.00 | 69 | 1010.9 |
| 20260506043003 | 16 | 206 | 4.8 | 12.9 | 0.00 | 0.00 | 0.00 | 68 | 1010.8 |
| 20260506042503 | 16 | 204 | 4.8 | 12.9 | 0.00 | 0.00 | 0.00 | 68 | 1010.8 |
| 20260506042003 | 16 | 203 | 3.2 | 19.3 | 0.00 | 0.00 | 0.00 | 68 | 1010.8 |
| 20260506041503 | 16 | 205 | 6.4 | 16.1 | 0.00 | 0.00 | 0.00 | 68 | 1010.8 |
| 20260506040503 | 16 | 210 | 4.8 | 14.5 | 0.00 | 0.00 | 0.00 | 67 | 1010.9 |
| 20260506040004 | 16 | 199 | 4.8 | 14.5 | 0.00 | 0.00 | 0.00 | 67 | 1010.9 |
| 20260506035522 | 16 | 205 | 3.2 | 11.3 | 0.00 | 0.00 | 0.00 | 67 | 1010.9 |
| 20260506035015 | 17 | 218 | 3.2 | 14.5 | 0.00 | 0.00 | 0.00 | 67 | 1010.9 |
| 20260506034509 | 17 | 211 | 6.4 | 16.1 | 0.00 | 0.00 | 0.00 | 67 | 1010.8 |
| 20260506034003 | 17 | 214 | 4.8 | 16.1 | 0.00 | 0.00 | 0.00 | 67 | 1010.8 |
| 20260506033004 | 17 | 213 | 6.4 | 16.1 | 0.00 | 0.00 | 0.00 | 66 | 1010.7 |
| 20260506032504 | 17 | 211 | 4.8 | 14.5 | 0.00 | 0.00 | 0.00 | 66 | 1010.7 |
| 20260506032004 | 17 | 204 | 4.8 | 12.9 | 0.00 | 0.00 | 0.00 | 66 | 1010.7 |
| 20260506031504 | 17 | 220 | 8.0 | 24.1 | 0.00 | 0.00 | 0.00 | 66 | 1010.7 |
| 20260506031004 | 17 | 225 | 6.4 | 16.1 | 0.00 | 0.00 | 0.00 | 66 | 1010.7 |
| 20260506030503 | 17 | 222 | 6.4 | 19.3 | 0.00 | 0.00 | 0.00 | 66 | 1010.7 |
| 20260506030003 | 17 | 210 | 4.8 | 12.9 | 0.00 | 0.00 | 0.00 | 65 | 1010.7 |
| 20260506025504 | 17 | 211 | 6.4 | 16.1 | 0.00 | 0.00 | 0.00 | 65 | 1010.7 |
| 20260506025003 | 17 | 220 | 8.0 | 19.3 | 0.00 | 0.00 | 0.00 | 65 | 1010.8 |
| 20260506024503 | 17 | 189 | 8.0 | 19.3 | 0.00 | 0.00 | 0.00 | 65 | 1010.7 |
| 20260506024005 | 17 | 190 | 4.8 | 24.1 | 0.00 | 0.00 | 0.00 | 65 | 1010.7 |
| 20260506023503 | 17 | 200 | 4.8 | 24.1 | 0.00 | 0.00 | 0.00 | 65 | 1010.7 |
| 20260506023003 | 17 | 226 | 11.3 | 22.5 | 0.00 | 0.00 | 0.00 | 64 | 1010.8 |
| 20260506022503 | 17 | 215 | 9.7 | 27.4 | 0.00 | 0.00 | 0.00 | 64 | 1010.8 |
| 20260506022003 | 17 | 216 | 6.4 | 16.1 | 0.00 | 0.00 | 0.00 | 64 | 1010.8 |
| 20260506021003 | 17 | 222 | 6.4 | 20.9 | 0.00 | 0.00 | 0.00 | 63 | 1010.8 |
| 20260506020503 | 18 | 206 | 8.0 | 19.3 | 0.00 | 0.00 | 0.00 | 62 | 1010.8 |
| 20260506020004 | 18 | 198 | 8.0 | 19.3 | 0.00 | 0.00 | 0.00 | 62 | 1010.7 |
| 20260506015503 | 18 | 207 | 9.7 | 22.5 | 0.00 | 0.00 | 0.00 | 61 | 1010.7 |
| 20260506015004 | 18 | 224 | 9.7 | 25.7 | 0.00 | 0.00 | 0.00 | 61 | 1010.7 |
| 20260506014503 | 18 | 209 | 8.0 | 16.1 | 0.00 | 0.00 | 0.00 | 61 | 1010.6 |
| 20260506014003 | 18 | 203 | 9.7 | 20.9 | 0.00 | 0.00 | 0.00 | 60 | 1010.6 |
| 20260506013503 | 18 | 202 | 8.0 | 22.5 | 0.00 | 0.00 | 0.00 | 60 | 1010.5 |
| 20260506013003 | 18 | 204 | 9.7 | 27.4 | 0.00 | 0.00 | 0.00 | 60 | 1010.4 |
| 20260506012503 | 18 | 185 | 8.0 | 24.1 | 0.00 | 0.00 | 0.00 | 60 | 1010.3 |
| 20260506012003 | 18 | 226 | 8.0 | 19.3 | 0.00 | 0.00 | 0.00 | 60 | 1010.4 |
| 20260506011503 | 18 | 223 | 8.0 | 20.9 | 0.00 | 0.00 | 0.00 | 60 | 1010.3 |
| 20260506010503 | 18 | 201 | 4.8 | 16.1 | 0.00 | 0.00 | 0.00 | 60 | 1010.1 |
| 20260506010003 | 18 | 212 | 6.4 | 14.5 | 0.00 | 0.00 | 0.00 | 60 | 1010.0 |
| 20260506005504 | 18 | 234 | 8.0 | 16.1 | 0.00 | 0.00 | 0.00 | 60 | 1010.0 |
| 20260506005003 | 18 | 212 | 6.4 | 24.1 | 0.00 | 0.00 | 0.00 | 60 | 1009.9 |
| 20260506004504 | 18 | 219 | 11.3 | 29.0 | 0.00 | 0.00 | 0.00 | 60 | 1009.9 |
| 20260506003503 | 18 | 203 | 9.7 | 19.3 | 0.00 | 0.00 | 0.00 | 59 | 1009.8 |
| 20260506003003 | 18 | 201 | 4.8 | 16.1 | 0.00 | 0.00 | 0.00 | 59 | 1010.0 |
| 20260506002504 | 18 | 219 | 9.7 | 24.1 | 0.00 | 0.00 | 0.00 | 59 | 1009.8 |
| 20260506001504 | 18 | 204 | 8.0 | 22.5 | 0.00 | 0.00 | 0.00 | 59 | 1009.7 |
| 20260506001003 | 18 | 232 | 11.3 | 32.2 | 0.00 | 0.00 | 0.00 | 59 | 1009.6 |
| 20260506000004 | 18 | 223 | 11.3 | 37.0 | 0.00 | 0.00 | 0.00 | 58 | 1009.7 |
| 20260505235504 | 18 | 230 | 11.3 | 20.9 | 0.00 | 0.00 | 0.00 | 59 | 1009.5 |
| 20260505234503 | 18 | 204 | 4.8 | 19.3 | 0.00 | 0.00 | 0.00 | 58 | 1009.4 |
| 20260505234004 | 18 | 223 | 4.8 | 19.3 | 0.00 | 0.00 | 0.00 | 57 | 1009.3 |
| 20260505233504 | 18 | 211 | 12.9 | 24.1 | 0.00 | 0.00 | 0.00 | 57 | 1009.3 |
| 20260505233003 | 18 | 227 | 9.7 | 24.1 | 0.00 | 0.00 | 0.00 | 57 | 1009.2 |
| 20260505232504 | 19 | 205 | 11.3 | 20.9 | 0.00 | 0.00 | 0.00 | 56 | 1009.1 |
| 20260505231503 | 19 | 202 | 8.0 | 20.9 | 0.00 | 0.00 | 0.00 | 56 | 1008.9 |
| 20260505231004 | 19 | 203 | 9.7 | 19.3 | 0.00 | 0.00 | 0.00 | 55 | 1008.8 |
| 20260505230504 | 20 | 223 | 8.0 | 19.3 | 0.00 | 0.00 | 0.00 | 55 | 1008.8 |
| 20260505230003 | 20 | 223 | 8.0 | 19.3 | 0.00 | 0.00 | 0.00 | 54 | 1008.8 |
| 20260505225004 | 20 | 190 | 9.7 | 19.3 | 0.00 | 0.00 | 0.00 | 53 | 1008.8 |
| 20260505224504 | 20 | 194 | 8.0 | 16.1 | 0.00 | 0.00 | 0.00 | 53 | 1008.8 |
| 20260505224005 | 20 | 211 | 8.0 | 19.3 | 0.00 | 0.00 | 0.00 | 53 | 1008.7 |
| 20260505223005 | 20 | 195 | 9.7 | 20.9 | 0.00 | 0.00 | 0.00 | 53 | 1008.7 |
| 20260505222503 | 20 | 216 | 8.0 | 24.1 | 0.00 | 0.00 | 0.00 | 53 | 1008.7 |
| 20260505222005 | 20 | 227 | 9.7 | 24.1 | 0.00 | 0.00 | 0.00 | 53 | 1008.6 |
| 20260505221503 | 20 | 192 | 9.7 | 27.4 | 0.00 | 0.00 | 0.00 | 53 | 1008.6 |
| 20260505221003 | 21 | 178 | 8.0 | 22.5 | 0.00 | 0.00 | 0.00 | 53 | 1008.6 |
| 20260505220503 | 21 | 205 | 11.3 | 29.0 | 0.00 | 0.00 | 0.00 | 52 | 1008.6 |
| 20260505220004 | 21 | 199 | 9.7 | 24.1 | 0.00 | 0.00 | 0.00 | 52 | 1008.4 |
| 20260505215503 | 21 | 213 | 8.0 | 27.4 | 0.00 | 0.00 | 0.00 | 52 | 1008.6 |
| 20260505215003 | 21 | 189 | 11.3 | 25.7 | 0.00 | 0.00 | 0.00 | 51 | 1008.6 |
| 20260505214504 | 21 | 234 | 8.0 | 32.2 | 0.00 | 0.00 | 0.00 | 52 | 1008.5 |
| 20260505214003 | 21 | 235 | 8.0 | 19.3 | 0.00 | 0.00 | 0.00 | 52 | 1008.4 |
| 20260505213504 | 21 | 200 | 8.0 | 19.3 | 0.00 | 0.00 | 0.00 | 52 | 1008.4 |
| 20260505213004 | 21 | 223 | 9.7 | 20.9 | 0.00 | 0.00 | 0.00 | 52 | 1008.4 |
| 20260505212503 | 21 | 229 | 11.3 | 19.3 | 0.00 | 0.00 | 0.00 | 53 | 1008.3 |
| 20260505212003 | 21 | 198 | 8.0 | 20.9 | 0.00 | 0.00 | 0.00 | 53 | 1008.3 |
| 20260505211504 | 21 | 204 | 4.8 | 16.1 | 0.00 | 0.00 | 0.00 | 53 | 1008.2 |
| 20260505211004 | 21 | 236 | 12.9 | 29.0 | 0.00 | 0.00 | 0.00 | 52 | 1008.2 |
| 20260505210503 | 21 | 234 | 11.3 | 35.4 | 0.00 | 0.00 | 0.00 | 51 | 1008.2 |
| 20260505210003 | 22 | 233 | 9.7 | 32.2 | 0.00 | 0.00 | 0.00 | 52 | 1008.2 |
| 20260505205504 | 22 | 223 | 12.9 | 24.1 | 0.00 | 0.00 | 0.00 | 51 | 1008.3 |
| 20260505205004 | 22 | 225 | 4.8 | 12.9 | 0.00 | 0.00 | 0.00 | 53 | 1008.3 |
| 20260505204504 | 22 | 185 | 6.4 | 12.9 | 0.00 | 0.00 | 0.00 | 52 | 1008.2 |
| 20260505204004 | 22 | 170 | 8.0 | 11.3 | 0.00 | 0.00 | 0.00 | 51 | 1008.3 |
| 20260505203503 | 22 | 201 | 8.0 | 14.5 | 0.00 | 0.00 | 0.00 | 50 | 1008.3 |
| 20260505203004 | 23 | 200 | 4.8 | 19.3 | 0.00 | 0.00 | 0.00 | 51 | 1008.3 |
| 20260505202504 | 23 | 167 | 4.8 | 12.9 | 0.00 | 0.00 | 0.00 | 49 | 1008.4 |
| 20260505202004 | 23 | 229 | 4.8 | 16.1 | 0.00 | 0.00 | 0.00 | 49 | 1008.4 |
| 20260505201503 | 23 | 246 | 3.2 | 12.9 | 0.00 | 0.00 | 0.00 | 50 | 1008.4 |
| 20260505201004 | 23 | 233 | 4.8 | 19.3 | 0.00 | 0.00 | 0.00 | 50 | 1008.4 |
| 20260505200505 | 23 | 222 | 9.7 | 22.5 | 0.00 | 0.00 | 0.00 | 49 | 1008.6 |
| 20260505200004 | 23 | 211 | 11.3 | 19.3 | 0.00 | 0.00 | 0.00 | 47 | 1008.6 |
| 20260505195504 | 24 | 199 | 9.7 | 22.5 | 0.00 | 0.00 | 0.00 | 47 | 1008.7 |
| 20260505195004 | 24 | 226 | 11.3 | 25.7 | 0.00 | 0.00 | 0.00 | 47 | 1008.7 |
| 20260505194503 | 24 | 223 | 3.2 | 12.9 | 0.00 | 0.00 | 0.00 | 49 | 1008.7 |
| 20260505194004 | 24 | 229 | 8.0 | 16.1 | 0.00 | 0.00 | 0.00 | 48 | 1008.7 |
| 20260505193503 | 24 | 229 | 4.8 | 14.5 | 0.00 | 0.00 | 0.00 | 50 | 1008.8 |
| 20260505193004 | 23 | 227 | 4.8 | 12.9 | 0.00 | 0.00 | 0.00 | 49 | 1008.9 |
| 20260505192504 | 23 | 173 | 4.8 | 24.1 | 0.00 | 0.00 | 0.00 | 50 | 1009.0 |
| 20260505191503 | 23 | 202 | 4.8 | 11.3 | 0.00 | 0.00 | 0.00 | 49 | 1009.2 |
| 20260505191003 | 23 | 204 | 8.0 | 19.3 | 0.00 | 0.00 | 0.00 | 48 | 1009.2 |
| 20260505190504 | 23 | 204 | 8.0 | 12.9 | 0.00 | 0.00 | 0.00 | 48 | 1009.4 |
| 20260505190005 | 23 | 184 | 9.7 | 20.9 | 0.00 | 0.00 | 0.00 | 48 | 1009.5 |
| 20260505185504 | 23 | 206 | 8.0 | 14.5 | 0.00 | 0.00 | 0.00 | 50 | 1009.5 |
| 20260505185005 | 23 | 192 | 8.0 | 16.1 | 0.00 | 0.00 | 0.00 | 49 | 1009.5 |
| 20260505184503 | 23 | 198 | 8.0 | 20.9 | 0.00 | 0.00 | 0.00 | 49 | 1009.5 |
| 20260505184003 | 24 | 205 | 8.0 | 20.9 | 0.00 | 0.00 | 0.00 | 49 | 1009.6 |
| 20260505183505 | 24 | 224 | 11.3 | 22.5 | 0.00 | 0.00 | 0.00 | 48 | 1009.5 |
| 20260505183004 | 23 | 205 | 8.0 | 14.5 | 0.00 | 0.00 | 0.00 | 50 | 1009.5 |
| 20260505182004 | 24 | 222 | 9.7 | 19.3 | 0.00 | 0.00 | 0.00 | 49 | 1009.6 |
| 20260505181504 | 23 | 192 | 9.7 | 20.9 | 0.00 | 0.00 | 0.00 | 49 | 1009.7 |
| 20260505181004 | 23 | 236 | 4.8 | 25.7 | 0.00 | 0.00 | 0.00 | 50 | 1009.7 |
| 20260505180503 | 24 | 213 | 8.0 | 19.3 | 0.00 | 0.00 | 0.00 | 49 | 1009.9 |
| 20260505180004 | 24 | 195 | 8.0 | 20.9 | 0.00 | 0.00 | 0.00 | 48 | 1009.9 |
| 20260505175504 | 24 | 220 | 9.7 | 20.9 | 0.00 | 0.00 | 0.00 | 49 | 1010.0 |
| 20260505175004 | 24 | 233 | 8.0 | 22.5 | 0.00 | 0.00 | 0.00 | 49 | 1009.9 |
| 20260505174503 | 24 | 241 | 4.8 | 16.1 | 0.00 | 0.00 | 0.00 | 50 | 1009.9 |
| 20260505174004 | 24 | 204 | 3.2 | 12.9 | 0.00 | 0.00 | 0.00 | 51 | 1009.8 |
| 20260505173003 | 24 | 182 | 6.4 | 14.5 | 0.00 | 0.00 | 0.00 | 51 | 1009.9 |
| 20260505172503 | 24 | 204 | 4.8 | 11.3 | 0.00 | 0.00 | 0.00 | 50 | 1010.0 |
| 20260505172005 | 24 | 193 | 6.4 | 14.5 | 0.00 | 0.00 | 0.00 | 50 | 1010.0 |
| 20260505170503 | 24 | 194 | 4.8 | 9.7 | 0.00 | 0.00 | 0.00 | 49 | 1010.0 |
| 20260505170003 | 24 | 147 | 3.2 | 12.9 | 0.00 | 0.00 | 0.00 | 51 | 1010.0 |
| 20260505165504 | 24 | 211 | 4.8 | 11.3 | 0.00 | 0.00 | 0.00 | 51 | 1010.0 |
| 20260505165003 | 24 | 226 | 6.4 | 14.5 | 0.00 | 0.00 | 0.00 | 50 | 1010.1 |
| 20260505164504 | 24 | 213 | 4.8 | 12.9 | 0.00 | 0.00 | 0.00 | 49 | 1010.2 |
| 20260505164003 | 25 | 183 | 4.8 | 11.3 | 0.00 | 0.00 | 0.00 | 49 | 1010.3 |
| 20260505163504 | 25 | 194 | 8.0 | 12.9 | 0.00 | 0.00 | 0.00 | 49 | 1010.4 |
| 20260505163005 | 25 | 200 | 3.2 | 11.3 | 0.00 | 0.00 | 0.00 | 49 | 1010.4 |